Simultaneous Nadir Overpasses (SNOs) Predictions

Prediction of SNOs between NOAA-20 and LANDSAT-8 Satellite Orbit:

Table of predicted SNOs for the next 14.0 days since TLE Epoch: 8/17/2019
Index Date (NOAA-20) Time (NOAA-20) Lat,Lon (NOAA-20) SZA (NOAA-20 ) Date (LANDSAT-8) Time (LANDSAT-8) Lat,Lon (LANDSAT-8) SZA (LANDSAT-8 ) Distance(km) Time Diff (sec)
1 08/17/2019 15:05:37 -70.11, 129.81 123.29 08/17/2019 15:06:47 -70.14, 129.87 123.28 3.16 70
2 08/17/2019 15:56:21 69.99, -62.69 56.60 08/17/2019 15:56:15 69.98, -62.71 56.58 1.60 6
3 08/17/2019 16:46:59 -69.70, 105.06 123.70 08/17/2019 16:45:47 -69.76, 104.62 123.62 18.17 72
4 08/20/2019 07:22:30 -70.09,-114.38 122.45 08/20/2019 07:23:18 -70.08,-114.34 122.48 2.44 48
5 08/20/2019 08:13:14 69.97, 53.11 57.44 08/20/2019 08:12:45 69.97, 53.16 57.44 1.82 29
6 08/22/2019 22:48:58 71.05,-167.46 59.44 08/22/2019 22:50:04 70.94,-164.80 59.24 97.21 66
7 08/22/2019 23:39:22 -70.02, 1.51 121.64 08/22/2019 23:39:49 -70.01, 1.46 121.65 2.13 27
8 08/23/2019 00:30:06 69.90, 168.99 58.26 08/23/2019 00:29:16 69.90, 168.95 58.26 1.79 50
9 08/25/2019 15:05:36 70.25, -50.38 59.50 08/25/2019 15:06:47 70.22, -50.01 59.45 14.66 71
10 08/25/2019 15:56:15 -70.00, 117.32 120.75 08/25/2019 15:56:19 -70.00, 117.32 120.75 0.58 4
11 08/25/2019 16:46:58 69.89, -75.21 59.15 08/25/2019 16:45:45 69.89, -75.19 59.16 0.76 73
12 08/28/2019 07:22:25 70.08, 65.66 60.25 08/28/2019 07:23:18 70.09, 65.69 60.26 2.09 53
13 08/28/2019 08:13:07 -69.98,-126.88 119.84 08/28/2019 08:12:48 -69.99,-126.81 119.83 2.76 19
14 08/28/2019 09:03:36 69.07, 41.74 59.24 08/28/2019 09:02:29 69.10, 39.63 59.33 83.82 67
15 08/30/2019 23:39:17 70.01,-178.47 61.13 08/30/2019 23:39:49 70.02,-178.53 61.13 2.49 32
16 08/31/2019 00:29:59 -69.91, -11.00 118.96 08/31/2019 00:29:19 -69.92, -11.03 118.95 1.67 40




NCC Satellite Simultaneous Nadir Overpasses (SNOs) Prediction Service
